www.pogodaiklimat.ru

Погода и климат >> Архив погоды >> Украина >> Киев


АРХИВ ПОГОДЫ в Киеве

Время (UTC), дата Ветер
(напр.,м/с)
 
Видим.   Явления Облачность Т
(С)
Тd
(С)
f
(%)
Тe
(С)
Тes
(С)
Комфортность P
(гПа)
Po
(гПа)
Тmin
(С)
Tmax
(С)
R
(мм)
R24
(мм)
S
(см)
06 16.05 В 3 20 км 8/0
[Ac cast Ci fib]
+18.4 +15.5 83 +19 +22 тепло 1017.7 998.1 +15.2 2
09 16.05 В 3 20 км 6/0
[Cs]
+23.6 +15.3 60 +27 +38 жарко 1016.8 997.5
12 16.05 ЮВ 2 20 км 8/8 1000 м
[Cu med, cong]
+25.3 +14.2 50 +28 +30 жарко 1015.6 996.5
15 16.05 В 3 20 км 9/9 600 м
[Cb cap]
+25.2 +12.6 45 +27 +27 жарко 1014.4 995.3
18 16.05 В 5 20 км 10/0
[Ac As]
+21.8 +13.9 61 +25 +25 комфорт 1014.8 995.5 +27.7
21 16.05 В 2 20 км 3/0
[Cs]
+19.1 +14.1 73 +21 +21 комфорт 1015.5 996.0
00 17.05 ЮВ 2 20 км 3/0
[Cc]
+16.8 +13.8 82 +17 +17 тепло 1015.7 996.0
03 17.05 ЮВ 2 20 км 10/0
[Cs]
+16.4 +14.1 86 +16 +17 тепло 1015.2 995.5
06 17.05 ЮВ 2 20 км 9/0
[Ac As]
+18.1 +14.1 77 +19 +21 тепло 1015.8 996.2 +16.3
09 17.05 ЮВ 2 20 км 4/3 1000 м
[Cu hum Ci sp]
+24.0 +16.5 63 +27 +38 жарко 1015.3 996.1
12 17.05 ЮВ 3 20 км 8/5 600 м
[Cb cap Ci fib]
+26.1 +15.1 51 +29 +34 жарко 1014.6 995.5
15 17.05 ЮВ 3 20 км 8/5 600 м
[Cb cap Cs]
+26.3 +15.3 51 +29 +31 жарко 1014.0 995.0
18 17.05 В 3 20 км 4/0
[Cs]
+23.3 +13.3 53 +26 +26 жарко 1013.9 994.7 +26.8
21 17.05 В 3 20 км 8/0
[Cs]
+20.5 +13.4 64 +23 +23 комфорт 1014.8 995.4
00 18.05 В 2 20 км 6/0
[Cs]
+18.0 +12.8 72 +19 +19 тепло 1015.1 995.5
03 18.05 В 3 20 км 9/0
[Cs]
+15.6 +12.1 80 +15 +15 по сезону 1015.3 995.5
06 18.05 В 3 20 км 9/0
[Ac lent Cs]
+18.9 +12.1 65 +20 +24 тепло 1014.9 995.4 +15.5
09 18.05 В 3 20 км 9/0
[Ci fib]
+22.9 +13.3 55 +26 +37 жарко 1014.5 995.2
12 18.05 В 4 20 км 9/0
[Ci fib]
+25.0 +11.7 43 +26 +34 жарко 1012.9 993.8
15 18.05 В 2 20 км 9/0
[Cs]
+24.9 +11.1 42 +26 +29 жарко 1011.9 992.8
18 18.05 В 3 20 км 9/0
[Cs]
+21.6 +6.0 36 +22 +22 комфорт 1011.9 992.6 +25.7
21 18.05 В 3 20 км 9/0
[Ci fib]
+18.6 +5.3 42 +19 +19 тепло 1013.0 993.4
00 19.05 В 2 20 км 8/0
[Ci fib]
+16.1 +5.8 50 +16 +16 тепло 1013.0 993.3
03 19.05 ЮВ 1 20 км 9/0
[Ci fib]
+15.1 +5.5 53 +16 +16 тепло 1012.8 993.0
06 19.05 Ю 2 20 км 1/0
[Ci fib]
+19.0 +9.8 55 +20 +27 тепло 1013.5 994.0 +14.8
09 19.05 ЮВ 3 20 км ясно +23.7 +11.1 45 +25 +39 комфорт 1013.4 994.2
12 19.05 ЮВ 3 20 км ясно +26.2 +9.6 35 +27 +38 жарко 1013.2 994.1
15 19.05 ЮВ 2 20 км ясно +25.8 +7.4 31 +26 +30 жарко 1012.8 993.7
18 19.05 ЮВ 2 20 км ясно +22.7 +5.2 32 +23 +23 комфорт 1013.3 994.0 +26.7
21 19.05 ЮВ 1 20 км ясно +18.5 +7.0 47 +20 +20 тепло 1014.4 994.8
00 20.05 штиль 0 20 км ясно +16.4 +7.4 55 +16 +16 тепло 1014.8 995.1
03 20.05 ЮВ 1 20 км ясно +14.9 +7.9 63 +16 +16 тепло 1015.7 995.8
06 20.05 Ю 2 20 км 3/0
[Ci fib]
+20.1 +11.0 56 +22 +29 комфорт 1016.0 996.5 +14.4
09 20.05 Ю 4 20 км 1/1 600 м
[Cu hum]
+25.0 +10.0 39 +26 +36 жарко 1015.5 996.3
12 20.05 Ю 3 20 км 1/1 1000 м
[Cu hum]
+26.6 +8.1 31 +27 +37 жарко 1014.9 995.8
15 20.05 Ю 4 20 км ясно +25.9 +9.7 36 +27 +29 жарко 1013.0 993.9
18 20.05 ЮВ 2 20 км 9/0
[Ac trans]
+23.0 +9.6 43 +25 +25 комфорт 1012.8 993.5 +27.4
21 20.05 Ю 1 20 км 10/0
[Ac und]
+20.4 +7.1 42 +23 +23 комфорт 1013.7 994.2
00 21.05 Ю 2 20 км 3/0
[Cs]
+17.8 +8.1 53 +18 +18 тепло 1013.1 993.5
03 21.05 ЮВ 2 20 км 4/0
[Cc]
+16.0 +8.8 62 +16 +16 тепло 1012.8 993.1
06 21.05 Ю 3 20 км 8/0
[Ac As]
+18.8 +11.6 63 +20 +22 тепло 1012.2 992.7 +15.9
09 21.05 Ю 3 20 км {ливн. осадки} 10/8 600 м
[Cb cap Ac As]
+20.1 +14.7 71 +23 +24 комфорт 1011.9 992.5
12 21.05 Ю 4 20 км в посл. час ливневой дождь 8/6 600 м
[Cb cap Ci sp]
+23.2 +15.0 60 +27 +31 душно 1010.0 990.8
15 21.05 Ю 3 20 км {ливн. осадки} 8/4 1000 м
[Cu Sc Ac lent Ci]
+21.0 +15.1 69 +25 +26 комфорт 1009.7 990.4
18 21.05 Ю 1 20 км слаб. ливневой дождь, в посл. час гроза 9/8 600 м
[Cb cap Ac lent Ci ing]
+17.3 +13.8 80 +18 +18 тепло 1010.0 990.5 +23.7 4
21 21.05 Ю 2 4000 м в посл. час ливневой дождь 3/0
[Ci sp]
+14.3 +13.4 94 +14 +14 по сезону 1010.6 990.8
00 22.05 Ю 3 4000 м дымка {ливн. осадки} 4/0
[Cs]
+13.4 +12.5 94 +12 +12 по сезону 1010.5 990.7
03 22.05 ЮЗ 1 4000 м дымка 8/0
[Ac lent Cs]
+12.2 +11.3 94 +12 +12 по сезону 1009.9 990.0
06 22.05 Ю 1 20 км 8/0
[As trans Cs]
+17.9 +12.9 73 +19 +25 тепло 1009.4 989.9 +12.1 2
09 22.05 Ю 3 20 км 9/0
[Cc]
+21.6 +11.4 52 +24 +35 комфорт 1008.8 989.5
12 22.05 ЮВ 2 20 км 8/4 600 м
[Cu med, cong Ci ing]
+24.3 +11.7 45 +26 +33 жарко 1007.6 988.5
15 22.05 ЮЗ 2 20 км 9/0
[Ac lent]
+21.0 +11.7 55 +24 +25 комфорт 1007.8 988.5
18 22.05 штиль 0 20 км 9/0
[Ac trans]
+18.0 +12.5 70 +18 +18 тепло 1007.7 988.2 +24.6
21 22.05 С 1 20 км 1/0
[Ac trans]
+17.2 +12.2 72 +18 +18 тепло 1007.6 988.1
00 23.05 штиль 0 20 км 9/0
[]
+15.6 +12.9 84 +15 +15 тепло 1007.7 988.1

 

Местоположение метеостанции Киев (город Киев, Украина): широта 50.40 долгота 30.57 высота над уровнем моря 167 м.

В архиве по умолчанию представлена погода в Киеве за последнюю неделю. Архивные данные за месяц целиком и за предыдущие месяцы, начиная с января 2011 года, Вы можете получить, выбрав интересующий диапазон дат из раскрывающегося списка и нажав кнопку "Ввод!".


*Определитесь, кто Вы:
робот инопланетянин человек

Внимание! Время в таблицах - всемирное. Для получения местного времени необходимо прибавить поправку, которая равна 2 ч.

Смотрите также архив погоды в соседних городах и на ближайших метеорологических станциях:

Погода в Вышгороде (Киевская область, Украина) (21 км)
Погода в Борисполе (Киевская область, Украина) (29 км)
Погода в Барышевке (Киевская область, Украина) (54 км)
Погода в Фастове (Киевская область, Украина) (58 км)
Погода в Остере (Черниговская область, Украина) (65 км)
Погода в Тетереве (Киевская область, Украина) (78 км)
Погода в Белой Церкви (Киевская область, Украина) (79 км)
Погода в Мироновке (Киевская область, Украина) (87 км)
Погода в Яготине (Киевская область, Украина) (90 км)
Погода в Чернобыле (Киевская область, Украина) (101 км)

Пояснения к столбцам:

Ветер - указаны скорость ветра в м/с - средняя за 10 мин, порывы в срок и между сроками (в фигурных скобках) и направление, откуда дует ветер: С - северный, СВ - северо-восточный, В - восточный, ЮВ - юго-восточный, Ю - южный, ЮЗ - юго-западный, З - западный, СЗ - северо-западный.
Видимость - горизонтальная дальность видимости в метрах или километрах. При видимости от 1 до 10 км при отсутствии осадков обычно наблюдается дымка, при ухудшении видимости до 1 км и менее - туман. В сухую погоду видимость может ухудшаться дымом, пылью или мглою.
Явления - указаны атмосферные явления, наблюдавшиеся в срок или в последний час перед сроком; фигурными скобками обозначены явления, наблюдавшиеся между сроками (за 1-3 часа до срока); квадратными скобками обозначены град или гололедные отложения с указанием их диаметра в мм.
Облачность - указаны через наклонную черту общая и нижняя облачность в баллах и высота нижней границы облаков в метрах; квадратными скобками обозначены формы облаков: Ci - перистые, Cs - перисто-слоистые, Cc - перисто-кучевые, Ac - высококучевые, As - высокослоистые, Sc - слоисто-кучевые, Ns - слоисто-дождевые, Cu - кучевые, Cb - кучево-дождевые. Подробнее классификацию облаков см. в Атласе облаков (PDF).
T - Температура воздуха - температура, измеренная на высоте 2 м над землей.
Td - Температура точки росы - температура, при понижении до которой содержащийся в воздухе водяной пар достигнет насыщения.
f - Относительная влажность воздуха - влажноcть воздуха, измеренная на высоте 2 м над землей.
Te - Эффективная температура - температура, которую ощущает одетый по сезону человек в тени. Характеристика душности погоды. При расчете учитывается влияние влажности воздуха и скорости ветра на теплоощущения человека.
Tes - Эффективная температура на солнце - температура, которую ощущает человек, с поправкой на солнечный нагрев. Характеристика знойности погоды. Зависит от высоты солнца над горизонтом, облачности и скорости ветра. Ночью, в пасмурную погоду, а также при ветре 12 м/с и более поправка равна нулю.
P - Атмосферное давление - приведенное к уровню моря атмосферное давление.
Po - Атмосферное давление - измеренное на уровне метеостанции атмосферное давление.
Tmin - Минимальная температура - минимум температуры воздуха на высоте 2 м над землей.
Tmax - Максимальная температура - максимум температуры воздуха на высоте 2 м над землей.
R - Количество осадков - Количество выпавших осадков за период времени, мм. При наведении курсора мыши на число - период времени, за который выпало указанное количество осадков.
R24 - Количество осадков - Количество выпавших осадков за 24 часа, мм.
S - Снежный покров - Высота снежного покрова, см. При наведении курсора мыши на число - состояние снежного покрова и степень покрытия местности в баллах.